EPKKEPGD

Guest
Details From EPKK - BALICE
To EPGD - LECH WALESA
Flight Number -
Tags decoded
Created
Modified
Stats Distance 265 nm / 491 km
Max Altitude 0 ft / 0 m
Waypoints 4
Social Downloads 5
Likes 0
Share VATSIM

Download

Looking for another format? Having issues loading an existing format? Contact us
Advertisement - Login to hide

Notes

Requested: EPKK NAVUR N744 OVBOR N133 GRUDA Z95 OSLOG EPGD Unmatched points: N744 OVBOR N133 Z95 OSLOG

Route

EPKK NAVUR GRUDA EPGD

ID Type Via Altitude Latitude Longitude Leg Dist Tot Dist Heading (true) Name
O EPKK APT - 0 ft / 0 m 50.07782˚ 19.78550˚ - 0 nm - BALICE
NAVUR FIX - 0 ft / 0 m 51.01306˚ 19.91111˚ 56 nm 56 nm 5° / 5° -
GRUDA FIX - 0 ft / 0 m 53.52111˚ 18.78139˚ 156 nm 212 nm 345° / 344° -
O EPGD APT - 0 ft / 0 m 54.37617˚ 18.47188˚ 52 nm 265 nm 348° / 348° LECH WALESA

Altitude Profile

Advertisement - Login to hide

Weather


0- 5 10 15 20 25 30 35+ Temperature / ° C

Clouds and Precipitation
Forecast for 2018-05-26 18:00 UTC. Updated 35 minutes ago

Ground ~20,000 ft ~40,000 ft Winds

EPKK

Details ICAO EPKK (KRK)
Name BALICE
Region Poland
Timezone Europe/Warsaw (UTC+2.0)
Stats Elevation 791 ft / 241 m (AMSL)
Location 50.077821° 19.785503°
Runways 1
Magnetic Variation 5.257° E

METAR

EPKK 261730Z 09006KT 9999 FEW061 23/14 Q1021

Decode

TAF

TAF EPKK 261730Z 2618/2718 VRB02KT CAVOK PROB30 TEMPO 2618/2620 SCT040CB PROB30 2700/2704 4000 BR BECMG 2709/2712 06010KT TEMPO 2712/2718 -SHRA BKN033CB PROB40 TEMPO 2712/2716 VRB16G30KT 4000 TSRA

Decode

Departure Runways

ID Width Length Bearing (true) Bearing (mag) Surface Threshold Offset Overrun Length
07 197 ft / 60 m 8,343 ft / 2,543 m 77.75° 72.49° Concrete 0 ft / 0 m 0 ft / 0 m
25 197 ft / 60 m 8,343 ft / 2,543 m 257.77° 252.51° Concrete 784 ft / 239 m 0 ft / 0 m

EPGD

Details ICAO EPGD (GDN)
Name LECH WALESA
Region Poland
Timezone Europe/Warsaw (UTC+2.0)
Stats Elevation 489 ft / 149 m (AMSL)
Location 54.376167° 18.471884°
Runways 1
Magnetic Variation 5.512° E

METAR

EPGD 261730Z 05006KT 9999 FEW023 17/15 Q1023

Decode

TAF

TAF TAF EPGD 261730Z 2618/2718 VRB04KT CAVOK TEMPO 2618/2622 SHRA BKN025CB BECMG 2620/2622 3000 BR BKN005 PROB40 2700/2706 0400 FG BKN001 BECMG 2706/2709 04010KT CAVOK TEMPO 2712/2716 3000 TSRA BKN030CB

Decode

Destination Runways

ID Width Length Bearing (true) Bearing (mag) Surface Threshold Offset Overrun Length
11 148 ft / 45 m 9,158 ft / 2,791 m 112.96° 107.45° Asphalt 0 ft / 0 m 0 ft / 0 m
29 148 ft / 45 m 9,158 ft / 2,791 m 293.00° 287.49° Asphalt 0 ft / 0 m 0 ft / 0 m

Approach Navaids

Runway Type Ident Frequency Range Bearing (true) Bearing (mag) Slope Elevation
29 Localiser IGDA 110.30 MHz 18 nm / 33 km 292.96° 287.45° - 489 ft / 149 m (AMSL)
29 Glidescope IGDA 110.30 MHz 10 nm / 19 km 292.98° 287.47° 2.90° 489 ft / 149 m (AMSL)
29 DME IGDA 110.30 MHz 18 nm / 33 km - - - 492 ft / 150 m (AMSL)

Popular Alternatives